| time (UTC) | temp F | wind direction | speed MPH | gust MPH | rain 1hr in | rain 24hr in | rain mn in | humidity % | barometer mb |
| 20260506110241 | 30 | 107 | 0.0 | 2.0 | 0.00 | 0.00 | 0.00 | 76 | 1013.8 |
| 20260506105737 | 30 | 83 | 0.0 | 2.0 | 0.00 | 0.00 | 0.00 | 76 | 1013.9 |
| 20260506105235 | 30 | 90 | 0.0 | 2.0 | 0.00 | 0.00 | 0.00 | 75 | 1013.7 |
| 20260506104732 | 31 | 103 | 2.0 | 2.0 | 0.00 | 0.00 | 0.00 | 75 | 1013.9 |
| 20260506104230 | 31 | 90 | 0.0 | 2.0 | 0.00 | 0.00 | 0.00 | 74 | 1013.8 |
| 20260506103727 | 31 | 90 | 0.0 | 2.0 | 0.00 | 0.00 | 0.00 | 74 | 1013.7 |
| 20260506103224 | 31 | 120 | 0.0 | 2.0 | 0.00 | 0.00 | 0.00 | 74 | 1013.6 |
| 20260506102722 | 31 | 84 | 0.0 | 2.0 | 0.00 | 0.00 | 0.00 | 74 | 1013.3 |
| 20260506102220 | 32 | 97 | 0.0 | 2.0 | 0.00 | 0.00 | 0.00 | 73 | 1013.3 |
| 20260506101716 | 32 | 103 | 0.0 | 2.0 | 0.00 | 0.00 | 0.00 | 74 | 1013.3 |
| 20260506101212 | 31 | 103 | 2.0 | 2.0 | 0.00 | 0.00 | 0.00 | 74 | 1013.2 |
| 20260506100711 | 31 | 102 | 1.0 | 2.0 | 0.00 | 0.00 | 0.00 | 74 | 1013.4 |
| 20260506100208 | 31 | 75 | 1.0 | 2.0 | 0.00 | 0.00 | 0.00 | 74 | 1013.3 |
| 20260506095707 | 31 | 90 | 0.0 | 2.0 | 0.00 | 0.00 | 0.00 | 74 | 1013.3 |
| 20260506095203 | 32 | 103 | 0.0 | 1.0 | 0.00 | 0.00 | 0.00 | 74 | 1013.4 |
| 20260506094700 | 32 | 117 | 1.0 | 2.0 | 0.00 | 0.00 | 0.00 | 74 | 1013.2 |
| 20260506094158 | 31 | 90 | 0.0 | 2.0 | 0.00 | 0.00 | 0.00 | 74 | 1013.4 |
| 20260506093657 | 32 | 66 | 0.0 | 2.0 | 0.00 | 0.00 | 0.00 | 74 | 1013.3 |
| 20260506093153 | 32 | 101 | 0.0 | 2.0 | 0.00 | 0.00 | 0.00 | 73 | 1013.2 |
| 20260506092651 | 32 | 90 | 1.0 | 2.0 | 0.00 | 0.00 | 0.00 | 73 | 1013.2 |
| 20260506092148 | 32 | 90 | 0.0 | 2.0 | 0.00 | 0.00 | 0.00 | 73 | 1013.5 |
| 20260506091646 | 32 | 77 | 0.0 | 2.0 | 0.00 | 0.00 | 0.00 | 73 | 1013.3 |
| 20260506091143 | 32 | 90 | 1.0 | 2.0 | 0.00 | 0.00 | 0.00 | 73 | 1013.5 |
| 20260506090641 | 32 | 103 | 2.0 | 2.0 | 0.00 | 0.00 | 0.00 | 72 | 1013.4 |
| 20260506090137 | 32 | 90 | 0.0 | 2.0 | 0.00 | 0.00 | 0.00 | 72 | 1013.5 |
| 20260506085634 | 32 | 90 | 0.0 | 2.0 | 0.00 | 0.00 | 0.00 | 72 | 1013.2 |
| 20260506085131 | 32 | 109 | 0.0 | 1.0 | 0.00 | 0.00 | 0.00 | 72 | 1013.0 |
| 20260506084627 | 32 | 90 | 0.0 | 2.0 | 0.00 | 0.00 | 0.00 | 71 | 1012.8 |
| 20260506084124 | 32 | 96 | 1.0 | 2.0 | 0.00 | 0.00 | 0.00 | 71 | 1012.9 |
| 20260506083621 | 32 | 114 | 0.0 | 2.0 | 0.00 | 0.00 | 0.00 | 70 | 1012.9 |
| 20260506083119 | 33 | 105 | 0.0 | 2.0 | 0.00 | 0.00 | 0.00 | 70 | 1013.0 |
| 20260506082615 | 33 | 98 | 0.0 | 1.0 | 0.00 | 0.00 | 0.00 | 69 | 1012.8 |
| 20260506082111 | 33 | 106 | 0.0 | 2.0 | 0.00 | 0.00 | 0.00 | 69 | 1013.0 |
| 20260506081609 | 34 | 105 | 0.0 | 1.0 | 0.00 | 0.00 | 0.00 | 69 | 1013.1 |
| 20260506081107 | 34 | 114 | 0.0 | 1.0 | 0.00 | 0.00 | 0.00 | 69 | 1012.9 |
| 20260506080604 | 34 | 103 | 1.0 | 2.0 | 0.00 | 0.00 | 0.00 | 67 | 1013.0 |
| 20260506073044 | 36 | 98 | 0.0 | 2.0 | 0.00 | 0.00 | 0.00 | 63 | 1012.8 |
| 20260506072541 | 36 | 90 | 2.0 | 5.0 | 0.00 | 0.00 | 0.00 | 64 | 1012.5 |
| 20260506072039 | 36 | 94 | 2.0 | 4.0 | 0.00 | 0.00 | 0.00 | 64 | 1012.6 |
| 20260506071537 | 36 | 71 | 0.0 | 5.0 | 0.00 | 0.00 | 0.00 | 64 | 1012.6 |
| 20260506071034 | 36 | 75 | 1.0 | 2.0 | 0.00 | 0.00 | 0.00 | 64 | 1012.7 |
| 20260506070531 | 37 | 50 | 2.0 | 4.0 | 0.00 | 0.00 | 0.00 | 63 | 1012.8 |
| 20260506062508 | 38 | 19 | 2.0 | 4.0 | 0.00 | 0.00 | 0.00 | 60 | 1012.5 |
| 20260506062005 | 38 | 117 | 1.0 | 6.0 | 0.00 | 0.00 | 0.00 | 59 | 1012.7 |
| 20260506061501 | 38 | 42 | 3.0 | 4.0 | 0.00 | 0.00 | 0.00 | 60 | 1012.7 |
| 20260506060959 | 38 | 131 | 0.0 | 3.0 | 0.00 | 0.00 | 0.00 | 60 | 1012.7 |
| 20260506060457 | 38 | 148 | 3.0 | 3.0 | 0.00 | 0.00 | 0.00 | 60 | 1012.5 |
| 20260506050926 | 39 | 75 | 2.0 | 3.0 | 0.00 | 0.00 | 0.00 | 58 | 1012.2 |
| 20260506050424 | 39 | 74 | 2.0 | 3.0 | 0.00 | 0.00 | 0.00 | 57 | 1012.0 |
| 20260506044914 | 40 | 114 | 1.0 | 3.0 | 0.00 | 0.00 | 0.00 | 56 | 1011.8 |
| 20260506044412 | 40 | 109 | 0.0 | 3.0 | 0.00 | 0.00 | 0.00 | 56 | 1012.2 |
| 20260506043909 | 40 | 84 | 2.0 | 3.0 | 0.00 | 0.00 | 0.00 | 55 | 1011.7 |
| 20260506043406 | 40 | 45 | 0.0 | 4.0 | 0.00 | 0.00 | 0.00 | 55 | 1011.9 |
| 20260506042904 | 40 | 74 | 2.0 | 6.0 | 0.00 | 0.00 | 0.00 | 55 | 1011.9 |
| 20260506042403 | 40 | 109 | 0.0 | 3.0 | 0.00 | 0.00 | 0.00 | 55 | 1011.7 |
| 20260506041901 | 41 | 105 | 2.0 | 5.0 | 0.00 | 0.00 | 0.00 | 54 | 1012.0 |
| 20260506041358 | 41 | 82 | 1.0 | 5.0 | 0.00 | 0.00 | 0.00 | 55 | 1012.0 |
| 20260506040855 | 41 | 83 | 1.0 | 5.0 | 0.00 | 0.00 | 0.00 | 54 | 1011.6 |
| 20260506040353 | 41 | 152 | 2.0 | 3.0 | 0.00 | 0.00 | 0.00 | 54 | 1011.9 |
| 20260506035848 | 41 | 109 | 2.0 | 4.0 | 0.00 | 0.00 | 0.00 | 54 | 1011.8 |
| 20260506035346 | 41 | 25 | 3.0 | 5.0 | 0.00 | 0.00 | 0.00 | 53 | 1011.8 |
| 20260506034843 | 41 | 61 | 2.0 | 6.0 | 0.00 | 0.00 | 0.00 | 52 | 1011.7 |
| 20260506034340 | 42 | 119 | 2.0 | 6.0 | 0.00 | 0.00 | 0.00 | 53 | 1011.7 |
| 20260506033837 | 42 | 143 | 0.0 | 4.0 | 0.00 | 0.00 | 0.00 | 53 | 1011.6 |
| 20260506033334 | 42 | 51 | 5.0 | 5.0 | 0.00 | 0.00 | 0.00 | 53 | 1011.7 |
| 20260506032831 | 42 | 30 | 4.0 | 11.0 | 0.00 | 0.00 | 0.00 | 53 | 1011.6 |
| 20260506032328 | 42 | 110 | 2.0 | 9.0 | 0.00 | 0.00 | 0.00 | 53 | 1011.6 |
| 20260506031825 | 42 | 135 | 3.0 | 4.0 | 0.00 | 0.00 | 0.00 | 54 | 1011.4 |
| 20260506031322 | 42 | 45 | 2.0 | 3.0 | 0.00 | 0.00 | 0.00 | 54 | 1011.4 |
| 20260506030819 | 42 | 99 | 3.0 | 6.0 | 0.00 | 0.00 | 0.00 | 54 | 1011.5 |
| 20260506030317 | 43 | 55 | 3.0 | 3.0 | 0.00 | 0.00 | 0.00 | 54 | 1011.4 |
| 20260506025814 | 43 | 103 | 0.0 | 4.0 | 0.00 | 0.00 | 0.00 | 53 | 1011.4 |
| 20260506025310 | 43 | 104 | 3.0 | 6.0 | 0.00 | 0.00 | 0.00 | 53 | 1011.3 |
| 20260506024808 | 43 | 41 | 2.0 | 3.0 | 0.00 | 0.00 | 0.00 | 52 | 1011.3 |
| 20260506024304 | 44 | 106 | 2.0 | 5.0 | 0.00 | 0.00 | 0.00 | 52 | 1011.0 |
| 20260506023800 | 44 | 51 | 3.0 | 5.0 | 0.00 | 0.00 | 0.00 | 52 | 1010.9 |
| 20260506023257 | 44 | 45 | 2.0 | 3.0 | 0.00 | 0.00 | 0.00 | 51 | 1011.0 |
| 20260506022754 | 44 | 79 | 2.0 | 3.0 | 0.00 | 0.00 | 0.00 | 51 | 1010.7 |
| 20260506022252 | 44 | 26 | 1.0 | 3.0 | 0.00 | 0.00 | 0.00 | 50 | 1010.8 |
| 20260506021750 | 44 | 82 | 1.0 | 4.0 | 0.00 | 0.00 | 0.00 | 49 | 1010.7 |
| 20260506021247 | 44 | 2 | 3.0 | 3.0 | 0.00 | 0.00 | 0.00 | 49 | 1010.7 |
| 20260506020743 | 44 | 63 | 0.0 | 4.0 | 0.00 | 0.00 | 0.00 | 49 | 1010.6 |
| 20260506020241 | 45 | 96 | 2.0 | 5.0 | 0.00 | 0.00 | 0.00 | 48 | 1010.5 |
| 20260506015738 | 45 | 25 | 3.0 | 3.0 | 0.00 | 0.00 | 0.00 | 48 | 1010.2 |
| 20260506015236 | 45 | 63 | 1.0 | 4.0 | 0.00 | 0.00 | 0.00 | 47 | 1010.2 |
| 20260506014732 | 45 | 127 | 0.0 | 5.0 | 0.00 | 0.00 | 0.00 | 48 | 1010.1 |
| 20260506014229 | 45 | 287 | 0.0 | 7.0 | 0.00 | 0.00 | 0.00 | 47 | 1010.3 |
| 20260506013726 | 45 | 270 | 0.0 | 4.0 | 0.00 | 0.00 | 0.00 | 47 | 1010.1 |
| 20260506013223 | 46 | 126 | 1.0 | 2.0 | 0.00 | 0.00 | 0.00 | 46 | 1010.0 |
| 20260506012719 | 46 | 66 | 1.0 | 6.0 | 0.00 | 0.00 | 0.00 | 45 | 1009.9 |
| 20260506012217 | 46 | 68 | 2.0 | 6.0 | 0.00 | 0.00 | 0.00 | 46 | 1009.9 |
| 20260506011714 | 46 | 106 | 0.0 | 6.0 | 0.00 | 0.00 | 0.00 | 47 | 1009.7 |
| 20260506011210 | 46 | 36 | 3.0 | 5.0 | 0.00 | 0.00 | 0.00 | 47 | 1009.7 |
| 20260506010709 | 47 | 4 | 2.0 | 6.0 | 0.00 | 0.00 | 0.00 | 46 | 1009.9 |
| 20260506010206 | 47 | 321 | 2.0 | 10.0 | 0.00 | 0.00 | 0.00 | 46 | 1009.6 |
| 20260506005703 | 47 | 180 | 3.0 | 3.0 | 0.00 | 0.00 | 0.00 | 45 | 1009.6 |
| 20260506005159 | 47 | 130 | 4.0 | 7.0 | 0.00 | 0.00 | 0.00 | 45 | 1009.6 |
| 20260506004655 | 48 | 79 | 0.0 | 12.0 | 0.00 | 0.00 | 0.00 | 44 | 1009.6 |
| 20260506004153 | 48 | 140 | 0.0 | 6.0 | 0.00 | 0.00 | 0.00 | 43 | 1009.6 |
| 20260506003649 | 49 | 125 | 0.0 | 4.0 | 0.00 | 0.00 | 0.00 | 43 | 1009.6 |
| 20260506003145 | 49 | 140 | 0.0 | 5.0 | 0.00 | 0.00 | 0.00 | 43 | 1009.2 |
| 20260506002641 | 49 | 6 | 1.0 | 4.0 | 0.00 | 0.00 | 0.00 | 42 | 1009.5 |
| 20260506002138 | 49 | 41 | 2.0 | 5.0 | 0.00 | 0.00 | 0.00 | 42 | 1009.3 |
| 20260506001633 | 49 | 140 | 3.0 | 3.0 | 0.00 | 0.00 | 0.00 | 42 | 1009.1 |
| 20260506001131 | 49 | 191 | 2.0 | 6.0 | 0.00 | 0.00 | 0.00 | 41 | 1009.2 |
| 20260506000628 | 49 | 149 | 3.0 | 4.0 | 0.00 | 0.00 | 0.00 | 41 | 1009.3 |
| 20260506000125 | 49 | 16 | 4.0 | 10.0 | 0.00 | 0.00 | 0.00 | 41 | 1009.2 |
| 20260505235623 | 49 | 75 | 3.0 | 5.0 | 0.00 | 0.00 | 0.00 | 41 | 1009.1 |
| 20260505235120 | 49 | 78 | 1.0 | 6.0 | 0.00 | 0.00 | 0.00 | 41 | 1009.4 |
| 20260505234617 | 49 | 139 | 2.0 | 9.0 | 0.00 | 0.00 | 0.00 | 41 | 1009.2 |
| 20260505234114 | 49 | 281 | 5.0 | 10.0 | 0.00 | 0.00 | 0.00 | 40 | 1009.3 |
| 20260505233611 | 50 | 129 | 0.0 | 3.0 | 0.00 | 0.00 | 0.00 | 41 | 1008.9 |
| 20260505233108 | 49 | 5 | 0.0 | 5.0 | 0.00 | 0.00 | 0.00 | 41 | 1009.1 |
| 20260505232606 | 50 | 74 | 3.0 | 5.0 | 0.00 | 0.00 | 0.00 | 40 | 1009.1 |
| 20260505232104 | 50 | 40 | 3.0 | 4.0 | 0.00 | 0.00 | 0.00 | 40 | 1008.9 |
| 20260505231600 | 50 | 147 | 3.0 | 4.0 | 0.00 | 0.00 | 0.00 | 41 | 1009.0 |
| 20260505231059 | 50 | 53 | 2.0 | 6.0 | 0.00 | 0.00 | 0.00 | 40 | 1009.1 |
| 20260505230556 | 50 | 285 | 2.0 | 5.0 | 0.00 | 0.00 | 0.00 | 41 | 1009.1 |
| 20260505230052 | 50 | 75 | 2.0 | 7.0 | 0.00 | 0.00 | 0.00 | 40 | 1009.0 |
| 20260505225549 | 50 | 106 | 0.0 | 5.0 | 0.00 | 0.00 | 0.00 | 41 | 1008.9 |
| 20260505225045 | 50 | 32 | 1.0 | 5.0 | 0.00 | 0.00 | 0.00 | 41 | 1008.9 |
| 20260505224542 | 50 | 188 | 0.0 | 5.0 | 0.00 | 0.00 | 0.00 | 41 | 1008.8 |
| 20260505224040 | 51 | 121 | 2.0 | 4.0 | 0.00 | 0.00 | 0.00 | 40 | 1008.8 |
| 20260505223537 | 50 | 14 | 3.0 | 7.0 | 0.00 | 0.00 | 0.00 | 40 | 1009.0 |
| 20260505223033 | 50 | 109 | 0.0 | 9.0 | 0.00 | 0.00 | 0.00 | 40 | 1009.0 |
| 20260505222529 | 51 | 241 | 2.0 | 6.0 | 0.00 | 0.00 | 0.00 | 39 | 1008.8 |
| 20260505222025 | 51 | 101 | 5.0 | 5.0 | 0.00 | 0.00 | 0.00 | 41 | 1009.1 |
| 20260505221523 | 51 | 54 | 1.0 | 11.0 | 0.00 | 0.00 | 0.00 | 39 | 1009.0 |
| 20260505221019 | 52 | 26 | 5.0 | 5.0 | 0.00 | 0.00 | 0.00 | 39 | 1009.1 |
| 20260505220517 | 52 | 21 | 0.0 | 4.0 | 0.00 | 0.00 | 0.00 | 39 | 1009.1 |
| 20260505220014 | 51 | 90 | 2.0 | 6.0 | 0.00 | 0.00 | 0.00 | 41 | 1008.9 |
| 20260505215512 | 51 | 137 | 4.0 | 7.0 | 0.00 | 0.00 | 0.00 | 40 | 1009.0 |
| 20260505215010 | 51 | 74 | 3.0 | 5.0 | 0.00 | 0.00 | 0.00 | 40 | 1009.1 |
| 20260505214508 | 51 | 94 | 0.0 | 11.0 | 0.00 | 0.00 | 0.00 | 40 | 1009.0 |
| 20260505214004 | 51 | 251 | 1.0 | 9.0 | 0.00 | 0.00 | 0.00 | 39 | 1009.1 |
| 20260505213502 | 52 | 95 | 2.0 | 5.0 | 0.00 | 0.00 | 0.00 | 39 | 1009.1 |
| 20260505212958 | 51 | 80 | 2.0 | 5.0 | 0.00 | 0.00 | 0.00 | 40 | 1009.0 |
| 20260505212455 | 51 | 196 | 4.0 | 5.0 | 0.00 | 0.00 | 0.00 | 40 | 1009.1 |
| 20260505211951 | 51 | 55 | 3.0 | 4.0 | 0.00 | 0.00 | 0.00 | 39 | 1009.1 |
| 20260505211449 | 51 | 56 | 2.0 | 7.0 | 0.00 | 0.00 | 0.00 | 39 | 1009.2 |
| 20260505210945 | 52 | 97 | 0.0 | 5.0 | 0.00 | 0.00 | 0.00 | 38 | 1009.3 |
| 20260505210442 | 52 | 270 | 2.0 | 5.0 | 0.00 | 0.00 | 0.00 | 38 | 1009.2 |
| 20260505205939 | 52 | 10 | 3.0 | 7.0 | 0.00 | 0.00 | 0.00 | 38 | 1009.2 |
| 20260505205438 | 52 | 200 | 1.0 | 8.0 | 0.00 | 0.00 | 0.00 | 38 | 1009.2 |
| 20260505204934 | 52 | 159 | 2.0 | 4.0 | 0.00 | 0.00 | 0.00 | 40 | 1009.0 |
| 20260505204432 | 52 | 312 | 2.0 | 5.0 | 0.00 | 0.00 | 0.00 | 39 | 1009.1 |
| 20260505203929 | 52 | 124 | 2.0 | 3.0 | 0.00 | 0.00 | 0.00 | 40 | 1009.4 |
| 20260505203425 | 52 | 147 | 2.0 | 4.0 | 0.00 | 0.00 | 0.00 | 39 | 1009.3 |
| 20260505202921 | 52 | 90 | 1.0 | 7.0 | 0.00 | 0.00 | 0.00 | 39 | 1009.2 |
| 20260505202418 | 53 | 173 | 1.0 | 5.0 | 0.00 | 0.00 | 0.00 | 38 | 1009.2 |
| 20260505201915 | 53 | 120 | 2.0 | 4.0 | 0.00 | 0.00 | 0.00 | 37 | 1009.3 |
| 20260505201412 | 53 | 93 | 3.0 | 5.0 | 0.00 | 0.00 | 0.00 | 39 | 1009.5 |
| 20260505200910 | 53 | 20 | 1.0 | 4.0 | 0.00 | 0.00 | 0.00 | 39 | 1009.4 |
| 20260505200407 | 53 | 172 | 0.0 | 9.0 | 0.00 | 0.00 | 0.00 | 39 | 1009.3 |
| 20260505195902 | 52 | 54 | 0.0 | 5.0 | 0.00 | 0.00 | 0.00 | 38 | 1009.4 |
| 20260505195400 | 52 | 133 | 3.0 | 10.0 | 0.00 | 0.00 | 0.00 | 38 | 1009.3 |
| 20260505194857 | 52 | 0 | 1.0 | 11.0 | 0.00 | 0.00 | 0.00 | 38 | 1009.2 |
| 20260505194354 | 53 | 147 | 3.0 | 16.0 | 0.00 | 0.00 | 0.00 | 38 | 1009.3 |
| 20260505193849 | 54 | 83 | 4.0 | 5.0 | 0.00 | 0.00 | 0.00 | 38 | 1009.4 |
| 20260505193347 | 53 | 180 | 0.0 | 4.0 | 0.00 | 0.00 | 0.00 | 38 | 1009.2 |
| 20260505192844 | 53 | 110 | 0.0 | 6.0 | 0.00 | 0.00 | 0.00 | 38 | 1009.2 |
| 20260505192343 | 53 | 123 | 3.0 | 5.0 | 0.00 | 0.00 | 0.00 | 38 | 1009.3 |
| 20260505191840 | 53 | 0 | 0.0 | 4.0 | 0.00 | 0.00 | 0.00 | 38 | 1009.1 |
| 20260505191338 | 54 | 122 | 3.0 | 6.0 | 0.00 | 0.00 | 0.00 | 38 | 1009.3 |
| 20260505190834 | 52 | 134 | 4.0 | 10.0 | 0.00 | 0.00 | 0.00 | 39 | 1009.3 |
| 20260505190330 | 53 | 96 | 3.0 | 6.0 | 0.00 | 0.00 | 0.00 | 37 | 1009.3 |
| 20260505185826 | 54 | 107 | 5.0 | 13.0 | 0.00 | 0.00 | 0.00 | 36 | 1009.4 |
| 20260505185322 | 54 | 135 | 0.0 | 6.0 | 0.00 | 0.00 | 0.00 | 38 | 1009.4 |
| 20260505184819 | 55 | 21 | 2.0 | 5.0 | 0.00 | 0.00 | 0.00 | 39 | 1009.3 |
| 20260505184316 | 53 | 106 | 1.0 | 5.0 | 0.00 | 0.00 | 0.00 | 39 | 1009.5 |
| 20260505183813 | 52 | 73 | 3.0 | 8.0 | 0.00 | 0.00 | 0.00 | 37 | 1009.3 |
| 20260505183310 | 53 | 45 | 4.0 | 6.0 | 0.00 | 0.00 | 0.00 | 37 | 1009.4 |
| 20260505182807 | 52 | 174 | 3.0 | 5.0 | 0.00 | 0.00 | 0.00 | 37 | 1009.4 |
| 20260505182306 | 53 | 330 | 2.0 | 10.0 | 0.00 | 0.00 | 0.00 | 36 | 1009.4 |
| 20260505181800 | 54 | 52 | 5.0 | 7.0 | 0.00 | 0.00 | 0.00 | 37 | 1009.4 |
| 20260505181257 | 53 | 101 | 0.0 | 8.0 | 0.00 | 0.00 | 0.00 | 38 | 1009.5 |
| 20260505180754 | 53 | 124 | 5.0 | 9.0 | 0.00 | 0.00 | 0.00 | 37 | 1009.3 |
| 20260505180250 | 53 | 135 | 8.0 | 8.0 | 0.00 | 0.00 | 0.00 | 40 | 1009.4 |
| 20260505175747 | 52 | 284 | 0.0 | 4.0 | 0.00 | 0.00 | 0.00 | 38 | 1009.6 |
| 20260505175243 | 51 | 106 | 1.0 | 6.0 | 0.00 | 0.00 | 0.00 | 37 | 1009.4 |
| 20260505174740 | 52 | 23 | 6.0 | 6.0 | 0.00 | 0.00 | 0.00 | 38 | 1009.3 |
| 20260505174237 | 51 | 170 | 2.0 | 5.0 | 0.00 | 0.00 | 0.00 | 39 | 1009.4 |
| 20260505173733 | 51 | 123 | 3.0 | 5.0 | 0.00 | 0.00 | 0.00 | 38 | 1009.6 |
| 20260505173230 | 51 | 154 | 1.0 | 6.0 | 0.00 | 0.00 | 0.00 | 38 | 1009.5 |
| 20260505172727 | 51 | 297 | 1.0 | 7.0 | 0.00 | 0.00 | 0.00 | 39 | 1009.6 |
| 20260505172224 | 51 | 68 | 3.0 | 9.0 | 0.00 | 0.00 | 0.00 | 38 | 1009.4 |
| 20260505171723 | 53 | 8 | 6.0 | 8.0 | 0.00 | 0.00 | 0.00 | 37 | 1009.5 |
| 20260505171221 | 53 | 120 | 1.0 | 4.0 | 0.00 | 0.00 | 0.00 | 39 | 1009.6 |
| 20260505170717 | 51 | 49 | 0.0 | 5.0 | 0.00 | 0.00 | 0.00 | 38 | 1009.6 |
| 20260505170215 | 51 | 12 | 0.0 | 9.0 | 0.00 | 0.00 | 0.00 | 38 | 1009.4 |
| 20260505165710 | 51 | 312 | 0.0 | 4.0 | 0.00 | 0.00 | 0.00 | 38 | 1009.6 |
| 20260505165206 | 52 | 92 | 0.0 | 14.0 | 0.00 | 0.00 | 0.00 | 36 | 1009.6 |
| 20260505164701 | 51 | 48 | 4.0 | 4.0 | 0.00 | 0.00 | 0.00 | 37 | 1009.5 |
| 20260505164159 | 50 | 229 | 5.0 | 9.0 | 0.00 | 0.00 | 0.00 | 38 | 1009.6 |
| 20260505163657 | 50 | 180 | 1.0 | 8.0 | 0.00 | 0.00 | 0.00 | 39 | 1009.5 |
| 20260505163155 | 51 | 351 | 2.0 | 4.0 | 0.00 | 0.00 | 0.00 | 38 | 1009.5 |
| 20260505162652 | 51 | 134 | 0.0 | 6.0 | 0.00 | 0.00 | 0.00 | 38 | 1009.6 |
| 20260505162149 | 52 | 32 | 0.0 | 6.0 | 0.00 | 0.00 | 0.00 | 38 | 1009.4 |
| 20260505161646 | 50 | 140 | 3.0 | 6.0 | 0.00 | 0.00 | 0.00 | 37 | 1009.5 |
| 20260505161143 | 54 | 22 | 2.0 | 6.0 | 0.00 | 0.00 | 0.00 | 34 | 1009.5 |
| 20260505160641 | 52 | 84 | 2.0 | 7.0 | 0.00 | 0.00 | 0.00 | 37 | 1009.7 |
| 20260505160138 | 50 | 27 | 5.0 | 9.0 | 0.00 | 0.00 | 0.00 | 37 | 1009.6 |
| 20260505153118 | 51 | 57 | 3.0 | 10.0 | 0.00 | 0.00 | 0.00 | 38 | 1009.5 |
| 20260505152614 | 51 | 50 | 2.0 | 10.0 | 0.00 | 0.00 | 0.00 | 37 | 1009.3 |
| 20260505152110 | 51 | 251 | 2.0 | 6.0 | 0.00 | 0.00 | 0.00 | 37 | 1009.7 |
| 20260505151605 | 51 | 124 | 2.0 | 7.0 | 0.00 | 0.00 | 0.00 | 37 | 1009.4 |
| 20260505151103 | 51 | 102 | 3.0 | 10.0 | 0.00 | 0.00 | 0.00 | 39 | 1009.6 |
| 20260505150559 | 51 | 219 | 4.0 | 7.0 | 0.00 | 0.00 | 0.00 | 40 | 1009.3 |
| 20260505140525 | 51 | 77 | 1.0 | 4.0 | 0.00 | 0.00 | 0.00 | 37 | 1008.9 |
| 20260505124938 | 46 | 176 | 0.0 | 5.0 | 0.00 | 0.00 | 0.00 | 44 | 1008.5 |
| 20260505124435 | 45 | 113 | 2.0 | 12.0 | 0.00 | 0.00 | 0.00 | 45 | 1008.4 |
| 20260505123931 | 45 | 20 | 4.0 | 7.0 | 0.00 | 0.00 | 0.00 | 46 | 1008.2 |
| 20260505123428 | 46 | 110 | 3.0 | 5.0 | 0.00 | 0.00 | 0.00 | 46 | 1008.1 |
| 20260505122923 | 46 | 121 | 2.0 | 3.0 | 0.00 | 0.00 | 0.00 | 49 | 1008.4 |
| 20260505122421 | 45 | 45 | 4.0 | 9.0 | 0.00 | 0.00 | 0.00 | 49 | 1007.8 |
| 20260505121918 | 44 | 114 | 0.0 | 4.0 | 0.00 | 0.00 | 0.00 | 52 | 1008.1 |
| 20260505121415 | 42 | 98 | 1.0 | 9.0 | 0.00 | 0.00 | 0.00 | 53 | 1007.7 |
| 20260505120910 | 41 | 90 | 1.0 | 11.0 | 0.00 | 0.00 | 0.00 | 56 | 1007.8 |
| 20260505120407 | 40 | 84 | 0.0 | 5.0 | 0.00 | 0.00 | 0.00 | 58 | 1007.8 |
| 20260505115906 | 39 | 346 | 1.0 | 5.0 | 0.00 | 0.00 | 0.00 | 59 | 1007.7 |
| 20260505115403 | 39 | 127 | 2.0 | 5.0 | 0.00 | 0.00 | 0.00 | 60 | 1007.7 |
| 20260505114901 | 39 | 277 | 0.0 | 5.0 | 0.00 | 0.00 | 0.00 | 61 | 1007.4 |
| 20260505114357 | 39 | 120 | 0.0 | 4.0 | 0.00 | 0.00 | 0.00 | 62 | 1007.4 |
| 20260505113853 | 38 | 28 | 2.0 | 9.0 | 0.00 | 0.00 | 0.00 | 63 | 1007.1 |
| 20260505113350 | 38 | 90 | 1.0 | 4.0 | 0.00 | 0.00 | 0.00 | 64 | 1007.1 |
| 20260505112846 | 38 | 154 | 0.0 | 4.0 | 0.00 | 0.00 | 0.00 | 65 | 1007.0 |
| 20260505112344 | 38 | 90 | 0.0 | 4.0 | 0.00 | 0.00 | 0.00 | 65 | 1007.1 |
| 20260505111839 | 38 | 97 | 1.0 | 3.0 | 0.00 | 0.00 | 0.00 | 67 | 1007.0 |
| 20260505111335 | 38 | 68 | 0.0 | 3.0 | 0.00 | 0.00 | 0.00 | 68 | 1007.2 |
| 20260505110831 | 38 | 34 | 0.0 | 5.0 | 0.00 | 0.00 | 0.00 | 68 | 1007.0 |